The Dalles, WA

3:31 PM PST on November 21, 2019 (GMT -0800)
Columbia Gorge Regional-The Dalles

Weather History for KDLS - September, 2019

Change the Weather History Date:

Tuesday, September 17, 2019

  Actual Average Record
Temperature  
Mean Temperature 60 °F -  
Max Temperature 70 °F 78 °F 97 °F (1981)
Min Temperature 51 °F 52 °F 29 °F (1965)
Degree Days  
Heating Degree Days 5    
Growing Degree Days 10 (Base 50)    
Moisture  
Dew Point 50 °F    
Average Humidity 75    
Maximum Humidity 93    
Minimum Humidity 50    
Precipitation  
Precipitation 0.16 in - - ()
Sea Level Pressure  
Sea Level Pressure 29.83 in    
Wind  
Wind Speed 4 mph (SW)    
Max Wind Speed 18 mph    
Max Gust Speed 24 mph    
Visibility 10 miles    
Events Rain    
Averages and records for this station are not official NWS values.
T = Trace of Precipitation, MM = Missing Value Source: NWS Daily Summary

Daily Weather History Graph

Daily Weather History Graph

Search for Another Location

Airport or City:

Astronomy

Sep. 17, 2019 Rise Set
Actual Time 6:45 AM PDT 7:12 PM PDT
Civil Twilight 6:15 AM PDT 7:41 PM PDT
Nautical Twilight 5:40 AM PDT 8:16 PM PDT
Astronomical Twilight 5:03 AM PDT 8:53 PM PDT
Moon 9:08 PM PDT (9/17) 10:03 AM PDT (9/17)
Length of Visible Light 13h 26m
Length of Day
12h 26m
Waning Gibbous, 88% of the Moon is Illuminated
Sep 17
Waning Gibbous
Sep 21
Last Quarter
Sep 28
New
Oct 5
First Quarter
Oct 13
Full

Hourly Weather History & Observations

Time (PDT) Temp. Dew Point Humidity Pressure Visibility Wind Dir Wind Speed Gust Speed Precip Events Conditions
12:53 AM 54.0 °F 45.0 °F 72% 29.90 in 10.0 mi SW 4.6 mph - N/A   Clear
1:53 AM 51.1 °F 46.0 °F 83% 29.91 in 10.0 mi Calm Calm - N/A   Clear
2:53 AM 51.1 °F 45.0 °F 80% 29.92 in 10.0 mi Calm Calm - N/A   Mostly Cloudy
3:53 AM 51.1 °F 46.0 °F 83% 29.92 in 10.0 mi Calm Calm - N/A   Overcast
4:53 AM 52.0 °F 46.9 °F 83% 29.91 in 10.0 mi SE 6.9 mph - N/A   Overcast
5:53 AM 52.0 °F 45.0 °F 77% 29.89 in 10.0 mi Calm Calm - N/A   Clear
6:53 AM 51.1 °F 46.0 °F 83% 29.89 in 10.0 mi Calm Calm - N/A   Mostly Cloudy
7:53 AM 53.1 °F 46.0 °F 77% 29.88 in 10.0 mi Calm Calm - N/A   Overcast
8:53 AM 55.0 °F 48.0 °F 77% 29.87 in 10.0 mi Calm Calm - N/A   Overcast
9:53 AM 55.0 °F 48.9 °F 80% 29.87 in 10.0 mi WSW 4.6 mph - 0.01 in Rain Light Rain
10:53 AM 55.9 °F 51.1 °F 84% 29.86 in 8.0 mi Calm Calm - 0.01 in Rain Light Rain
11:53 AM 57.0 °F 51.1 °F 81% 29.85 in 6.0 mi WSW 4.6 mph - 0.02 in Rain Light Rain
12:53 PM 60.1 °F 53.1 °F 78% 29.84 in 10.0 mi Calm Calm - 0.00 in   Overcast
1:53 PM 64.0 °F 51.1 °F 63% 29.82 in 10.0 mi Variable 4.6 mph - N/A   Overcast
2:53 PM 66.9 °F 50.0 °F 54% 29.79 in 10.0 mi South 11.5 mph - N/A   Partly Cloudy
3:53 PM 68.0 °F 48.9 °F 50% 29.78 in 10.0 mi SSW 16.1 mph 23.0 mph N/A   Mostly Cloudy
4:53 PM 69.1 °F 50.0 °F 51% 29.76 in 10.0 mi South 18.4 mph 24.2 mph N/A   Mostly Cloudy
5:53 PM 66.9 °F 50.0 °F 54% 29.76 in 10.0 mi SW 9.2 mph - N/A   Overcast
6:53 PM 64.0 °F 50.0 °F 60% 29.75 in 10.0 mi SW 4.6 mph - N/A   Mostly Cloudy
7:53 PM 62.1 °F 54.0 °F 75% 29.75 in 10.0 mi NW 6.9 mph - N/A   Overcast
8:53 PM 59.0 °F 55.0 °F 87% 29.76 in 4.0 mi NNW 3.5 mph - 0.07 in Rain Rain
9:53 PM 59.0 °F 55.9 °F 90% 29.77 in 10.0 mi SSW 3.5 mph - 0.02 in   Overcast
10:53 PM 57.9 °F 55.9 °F 93% 29.78 in 10.0 mi Calm Calm - 0.01 in Rain Light Rain
11:53 PM 57.9 °F 55.0 °F 90% 29.77 in 10.0 mi North 3.5 mph - 0.02 in   Overcast